OVZON-3

Last updated on Sun Apr 12 2026 00:02:56 GMT+0000 (Coordinated Universal Time)

1 58698U 24003A 26101.46122839 .00000053 00000+0 00000+0 0 9996 2 58698 0.0106 177.9040 0000353 286.8202 320.7036 1.00273614 6777
UTC large
Height (km)
Speed (km/s)
/
Latitude / Longitude
Inclination (degrees)
Orbital Period (minutes)
Azimuth
Elevation
Range (km)
Doppler Factor

Next 0 passes for location: London (51.5072 / 0.1276)

Sorry there are no passes over London.
OVZON-3